www.pogodaiklimat.ru

Погода и климат >> Архив погоды >> Россия >> Приморский край >> Тимирязевский


АРХИВ ПОГОДЫ в Тимирязевском

Время (UTC), дата Ветер
(напр.,м/с)
 
Видим.   Явления Облачность Т
(С)
Тd
(С)
f
(%)
Тe
(С)
Тes
(С)
Комфортность P
(гПа)
Po
(гПа)
Тmin
(С)
Tmax
(С)
R
(мм)
R24
(мм)
S
(см)
12 14.03 ЮВ 3
{10}
20 км 4/0
[Ci fib]
+0.3 -9.8 47 -4 -4 1017.1 1012.6
15 14.03 Ю 3 20 км 6/3 1000 м
[Sc Ci fib]
-0.8 -8.2 57 -5 -5 1017.1 1012.6
18 14.03 штиль 0 20 км 10/3 1000 м
[Sc Ci fib]
-3.7 -8.4 70 -4 -4 1016.7 1012.2
21 14.03 ЮЗ 2 20 км 10/6 1000 м
[Sc Ci fib]
-3.2 -7.6 72 -7 -7 1016.7 1012.2 -4.6
00 15.03 Ю 2 20 км 10/8 600 м
[Cb cap Ci fib]
+1.1 -5.1 63 -2 -1 1017.0 1012.5
03 15.03 З 3 20 км 10/4 600 м
[Cu med, cong Ci fib]
+5.0 -8.0 38 +2 +7 1015.6 1011.2
06 15.03 СЗ 4
{12}
20 км 10/6 600 м
[Cb cap Ci fib]
+5.8 -10.0 31 +3 +4 1014.2 1009.8
09 15.03 СВ 2
{11}
50 км 10/4 600 м
[Cb cap Ci fib]
+2.4 -5.8 55 -0 -0 1015.1 1010.7 +6.3
12 15.03 СВ 2 50 км ясно -2.8 -5.9 79 -7 -7 1016.6 1012.1
15 15.03 СВ 1 50 км ясно -6.9 -8.3 90 -9 -9 1017.0 1012.5
18 15.03 Ю 1 50 км ясно -7.6 -8.5 93 -10 -10 1017.2 1012.6
21 15.03 штиль 0 50 км 6/6 1000 м
[Sc]
-7.6 -8.5 93 -8 -8 1017.2 1013.1 -9.7
00 16.03 ЮЗ 1 10 км 3/3 1000 м
[Sc]
-2.2 -8.3 63 -4 0 1018.3 1013.8 -10.8
03 16.03 СЗ 4 20 км 8/8 600 м
[Cb cap]
+4.2 -14.9 23 +1 +3 1016.9 1012.5
06 16.03 С 6-10
{10}
20 км 4/4 1000 м
[Cu med, cong]
+5.8 -14.1 22 +2 +4 1015.2 1010.8
09 16.03 СВ 3
{10}
20 км ясно +3.2 -12.7 30 0 0 1015.9 1011.5 +5.9
12 16.03 штиль 0 20 км ясно -2.9 -11.8 50 -3 -3 1017.9 1013.4
15 16.03 ЮЗ 1 20 км ясно -6.9 -12.3 65 -9 -9 1018.3 1013.7
18 16.03 штиль 0 20 км ясно -9.1 -12.4 77 -10 -10 1018.7 1014.0
21 16.03 Ю 2 20 км ясно -8.8 -11.8 79 -13 -13 1018.8 1014.2 -11.2
00 17.03 Ю 2 10 км 4/0
[Ci fib]
-1.8 -9.1 57 -5 -1 1019.5 1015.0
03 17.03 З 5 20 км 6/0
[Ci fib]
+8.2 -17.2 15 +6 +11 1017.8 1013.4
06 17.03 З 5
{10}
50 км ясно +10.1 -19.8 10 +8 +11 1015.2 1010.9
09 17.03 Ю 5
{11}
10 км ясно +6.6 -14.3 21 +4 +4 1015.3 1011.0 +10.5
12 17.03 Ю 3 10 км ясно +2.4 -9.7 40 -1 -1 1015.9 1011.5
15 17.03 Ю 4 10 км 10/0
[Ci fib]
+0.7 -7.4 55 -4 -4 1016.0 1011.6
18 17.03 Ю 4 10 км 10/0
[Ci fib]
-0.1 -5.3 68 -5 -5 1014.7 1010.2
21 17.03 Ю 4 10 км 10/0
[Ci fib]
+0.9 -4.0 70 -4 -4 1013.0 1008.6 -0.2
00 18.03 Ю 7-13
{15}
10 км 9/0
[Ac lent Ci fib]
+4.7 -0.8 67 -1 +1 1010.9 1006.5
03 18.03 Ю 9-18
{18}
10 км 10/0
[Ci fib]
+9.5 -2.1 44 +6 +7 1007.0 1002.7
06 18.03 Ю 7-15
{18}
10 км 6/0
[Ci fib]
+11.2 -5.9 30 +9 +10 1004.3 1000.0
09 18.03 Ю 5
{17}
10 км ясно +7.5 -3.1 47 +4 +4 1004.8 1000.5 +11.2
12 18.03 Ю 5
{13}
10 км ясно +4.5 -0.6 69 0 0 1006.9 1002.5
15 18.03 Ю 5
{11}
10 км ясно +1.9 -0.4 85 -4 -4 1008.0 1003.6
18 18.03 Ю 2 10 км ясно +1.4 -0.7 86 -2 -2 1008.9 1004.5
21 18.03 З 1 10 км 6/3 600 м
[Cb cap Ci fib]
-4.6 -5.3 95 -7 -7 1011.3 1006.8 -4.6
00 19.03 С 1 4000 м дымка 4/0
[Ci fib]
+2.1 -0.6 82 +1 +6 1013.3 1008.8 -5.6
03 19.03 С 1 20 км 3/0
[Ci fib]
+11.8 -7.1 26 +12 +25 опасность
простуды
1012.1 1007.8
06 19.03 Ю 2 20 км 10/0
[Cs]
+14.9 -8.0 20 +15 +20 1009.3 1005.1
09 19.03 Ю 4 10 км 6/0
[Ci fib]
+13.4 -6.0 25 +12 +12 1007.6 1003.4 +15.7
12 19.03 Ю 7-13
{13}
10 км ясно +10.1 -7.8 28 +7 +7 1008.2 1003.9
15 19.03 Ю 6-13
{15}
10 км 8/0
[Ac trans Ci fib]
+8.0 -3.5 44 +5 +5 1007.4 1003.1
18 19.03 Ю 5-10
{15}
10 км 10/0
[Ac trans Cs]
+5.0 -1.8 61 +1 +1 1007.3 1003.0
21 19.03 Ю 5-10
{11}
10 км 10/0
[Ac trans Cs]
+4.0 +0.1 76 -1 -1 1006.9 1002.6 +3.8
00 20.03 Ю 6-12
{12}
10 км 10/0
[As op]
+6.1 +1.1 70 +2 +2 1007.9 1003.6
03 20.03 Ю 5
{13}
10 км 10/0
[Ac As]
+8.3 +0.9 60 +5 +7 1008.4 1004.1
06 20.03 С 5 10 км 10/0
[Ac trans Cs]
+12.9 -0.1 41 +11 +13 1008.2 1003.8
09 20.03 СВ 5
{11}
4000 м слаб. дождь 10/0
[As op]
+5.4 -4.7 48 +2 +2 1008.7 1004.4 +13.5 0.0
12 20.03 С 5 4000 м дым {дождь} 10/0
[As op]
+2.7 -5.8 53 -2 -2 1011.2 1006.8
15 20.03 С 5
{11}
4000 м 10/0
[As op]
+0.4 -2.0 84 -6 -6 1009.8 1005.4
18 20.03 С 3
{11}
4000 м слаб. дождь 10/0
[As op]
-0.3 -1.9 89 -5 -5 1008.4 1004.0
21 20.03 С 3 4000 м слаб. снег {дождь} 10/0
[As op]
-1.0 -1.3 98 -6 -6 1006.0 1001.6 -1.0 0.7 <0.5
00 21.03 С 4 4000 м слаб. снег {дождь} 10/0
[As op]
-1.7 -1.8 99 -8 -7 1004.8 1000.4 -1.8
03 21.03 С 5 4000 м слаб. снег 10/0
[As op]
-2.1 -2.8 95 -9 -8 1003.0 998.6
06 21.03 С 6 4000 м слаб. снег {метель} 10/0
[As op]
-2.9 -3.8 93 -10 -10 1002.2 997.8
09 21.03 С 5
{10}
4000 м слаб. снег {метель} 10/0
[As op]
-4.1 -5.1 93 -11 -11 1004.7 1000.3 -1.0 11

 

Местоположение метеостанции Тимирязевский (Приморский край, Россия): широта 43.88 долгота 131.90 высота над уровнем моря 36 м.

В архиве по умолчанию представлена погода в Тимирязевском за последнюю неделю. Архивные данные за месяц целиком и за предыдущие месяцы, начиная с января 2011 года, Вы можете получить, выбрав интересующий диапазон дат из раскрывающегося списка и нажав кнопку "Ввод!".


*Определитесь, кто Вы:
робот инопланетянин человек

Внимание! Время в таблицах - всемирное. Для получения местного времени необходимо прибавить поправку, которая равна 10 ч.

Смотрите также архив погоды в соседних городах и на ближайших метеорологических станциях:

Погода в Полтавке (Приморский край, Россия) (51 км)
Погода в Хороле (Приморский край, Россия) (62 км)
Погода в Многоудобном (Приморский край, Россия) (65 км)
Погода в Пограничном (Приморский край, Россия) (75 км)
Погода в Суйфэньхэ (Хэйлунцзян, Китай) (82 км)
Погода в Владивостоке (Приморский край, Россия) (85 км)
Погода в Барабаше (Приморский край, Россия) (86 км)
Погода в Анучино (Приморский край, Россия) (89 км)
Погода на Мысе Назимова (Приморский край, Россия) (92 км)
Погода в Астраханке (Приморский край, Россия) (94 км)

Пояснения к столбцам:

Ветер - указаны скорость ветра в м/с - средняя за 10 мин, порывы в срок и между сроками (в фигурных скобках) и направление, откуда дует ветер: С - северный, СВ - северо-восточный, В - восточный, ЮВ - юго-восточный, Ю - южный, ЮЗ - юго-западный, З - западный, СЗ - северо-западный.
Видимость - горизонтальная дальность видимости в метрах или километрах. При видимости от 1 до 10 км при отсутствии осадков обычно наблюдается дымка, при ухудшении видимости до 1 км и менее - туман. В сухую погоду видимость может ухудшаться дымом, пылью или мглою.
Явления - указаны атмосферные явления, наблюдавшиеся в срок или в последний час перед сроком; фигурными скобками обозначены явления, наблюдавшиеся между сроками (за 1-3 часа до срока); квадратными скобками обозначены град или гололедные отложения с указанием их диаметра в мм.
Облачность - указаны через наклонную черту общая и нижняя облачность в баллах и высота нижней границы облаков в метрах; квадратными скобками обозначены формы облаков: Ci - перистые, Cs - перисто-слоистые, Cc - перисто-кучевые, Ac - высококучевые, As - высокослоистые, Sc - слоисто-кучевые, Ns - слоисто-дождевые, Cu - кучевые, Cb - кучево-дождевые. Подробнее классификацию облаков см. в Атласе облаков (PDF).
T - Температура воздуха - температура, измеренная на высоте 2 м над землей.
Td - Температура точки росы - температура, при понижении до которой содержащийся в воздухе водяной пар достигнет насыщения.
f - Относительная влажность воздуха - влажноcть воздуха, измеренная на высоте 2 м над землей.
Te - Эффективная температура - температура, которую ощущает одетый по сезону человек в тени. Характеристика душности погоды. При расчете учитывается влияние влажности воздуха и скорости ветра на теплоощущения человека.
Tes - Эффективная температура на солнце - температура, которую ощущает человек, с поправкой на солнечный нагрев. Характеристика знойности погоды. Зависит от высоты солнца над горизонтом, облачности и скорости ветра. Ночью, в пасмурную погоду, а также при ветре 12 м/с и более поправка равна нулю.
P - Атмосферное давление - приведенное к уровню моря атмосферное давление.
Po - Атмосферное давление - измеренное на уровне метеостанции атмосферное давление.
Tmin - Минимальная температура - минимум температуры воздуха на высоте 2 м над землей.
Tmax - Максимальная температура - максимум температуры воздуха на высоте 2 м над землей.
R - Количество осадков - Количество выпавших осадков за период времени, мм. При наведении курсора мыши на число - период времени, за который выпало указанное количество осадков.
R24 - Количество осадков - Количество выпавших осадков за 24 часа, мм.
S - Снежный покров - Высота снежного покрова, см. При наведении курсора мыши на число - состояние снежного покрова и степень покрытия местности в баллах.